Ross, Ohio
Current Conditions -  °F | °C
As of 8:35 PM on Wednesday 26 Nov 2014 (Local Time) from KI67 Reporting Station
Clear Clear  
Wind Chill: 27°   Ceiling: Unl
Heat Index: 32°   Visibility: 10mi
Dew Point: 27°   Wind: 5mph
Humidity: 80%   Direction: 20°NNE
Pressure: 30.07"   Gusts: NA
Location:  39.31°N, 84.65°W
Report Text: KI67 270135Z AUTO 02004KT 10SM CLR 00/M03 A3007 RMK AO1
Loading
Personal Weather Stations






























Interactive Weather Map New forecast layout! Learn more

10-Day Weather Forecast

Advertisements
Track Severe Weather on mobile